Regional Weather Roundup
Issued by NWS Mobile, AL

Home | Current Version | Previous Version | Text Only | Print | Product List | Glossary On
Versions: 1 2 3 4 5 6 7 8 9 10 11 12 13 14 15 16 17 18 19 20 21 22 23 24 25 26 27
000
ASUS44 KMOB 011212
RWRMOB
REGIONAL WEATHER ROUNDUP
NATIONAL WEATHER SERVICE MOBILE AL
700 AM CDT SAT OCT 01 2016

NOTE: "FAIR" INDICATES FEW OR NO CLOUDS BELOW 12,000 FEET WITH NO
      SIGNIFICANT WEATHER AND/OR OBSTRUCTIONS TO VISIBILITY.

  * THESE STATIONS ARE PART OF THE UNIVERSITY OF SOUTH ALABAMA
    MESONET AND ARE NOT UNDER NWS OR FAA QUALITY CONTROL.

ALZ061>064-011300-
COASTAL ALABAMA

CITY           SKY/WX    TMP DP  RH WIND       PRES   REMARKS
MOBILE REG APT PTCLDY    57  56  96 CALM      30.08R
6HR MIN TEMP:  56; 6HR MAX TEMP:  63;

BROOKLEY FIELD CLEAR     59  58  96 NW5       30.08R
6HR MIN TEMP:  58; 6HR MAX TEMP:  73;

USA CAMPUS*    NOT AVBL
DOG RIVER*     NOT AVBL


CITY           SKY/WX    TMP DP  RH WIND       PRES   REMARKS
MOUNT VERNON*  NOT AVBL
SARALAND*      NOT AVBL
BAY MINETTE*   NOT AVBL
LOXLEY*        NOT AVBL
ROBERTSDALE*   NOT AVBL
FAIRHOPE*      NOT AVBL
ELBERTA*       NOT AVBL
FOLEY*         NOT AVBL
GRAND BAY*     NOT AVBL
DAUPHIN ISLND* NOT AVBL
BON SCOUR NWR* NOT AVBL
GULF SHORES    CLEAR     57  57  99 CALM      30.06R

$$

ALZ051>060-011300-
INTERIOR SOUTHWEST AND SOUTH CENTRAL ALABAMA

CITY           SKY/WX    TMP DP  RH WIND       PRES   REMARKS
GREENVILLE     CLEAR     52  47  83 CALM      30.08R
6HR MIN TEMP:  51; 6HR MAX TEMP:  55;

EVERGREEN      CLEAR     52  50  93 CALM      30.09R
6HR MIN TEMP:  51; 6HR MAX TEMP:  56;

CASTLEBERRY*   NOT AVBL
ATMORE*        NOT AVBL
DIXIE*         NOT AVBL
ANDALUSIA/OPP  CLEAR     57  51  80 CALM      30.08R
6HR MIN TEMP:  57; 6HR MAX TEMP:  61;

ANDALUSIA*     NOT AVBL
FLORALA APT    CLEAR     53  51  93 CALM      30.10R
6HR MIN TEMP:  52; 6HR MAX TEMP:  57;

FLORALA*       NOT AVBL

$$

FLZ001>006-011300-
WESTERN FLORIDA PANHANDLE

CITY           SKY/WX    TMP DP  RH WIND       PRES   REMARKS
PENSACOLA      CLEAR     60  55  83 N6        30.06R
6HR MIN TEMP:  59; 6HR MAX TEMP:  66;

NAS PENSACOLA  CLEAR     58  56  93 NW3       30.06R
6HR MIN TEMP:  56; 6HR MAX TEMP:  62;

MILTON         CLEAR     54  54 100 N6        30.07R
6HR MIN TEMP:  53; 6HR MAX TEMP:  56;

WHTNG S FIELD  CLEAR     54  52  93 NW3       30.07R
6HR MIN TEMP:  54; 6HR MAX TEMP:  60;



CITY           SKY/WX    TMP DP  RH WIND       PRES   REMARKS
WALNUT HILL*   NOT AVBL
JAY*           NOT AVBL
DUKE FIELD     CLEAR     50  48  93 CALM      30.06R
CRESTVIEW      CLEAR     50  49  96 CALM      30.09R FOG
6HR MIN TEMP:  50; 6HR MAX TEMP:  56;

VALPARAISO     PTCLDY    55  52  89 NW3       30.07R
6HR MIN TEMP:  55; 6HR MAX TEMP:  62;

DESTIN         CLEAR     66  58  75 N3        30.07R
6HR MIN TEMP:  65; 6HR MAX TEMP:  71;


$$

MSZ076-079-011300-
INTERIOR SOUTHEAST MISSISSIPPI

CITY           SKY/WX    TMP DP  RH WIND       PRES   REMARKS
LEAKESVILLE*   NOT AVBL
AGRICOLA*      NOT AVBL

$$

MARINE OBSERVATIONS

STATION/POSITION TIME  TEMP    WIND        PRES    WAVE
                       AIR SEA DIR/SP/G            HT/PER
                 (UTC) (F)     (DEG/KT/KT) (MB)    (FT/S)
PASCAGOULA       1100   67     350/  3/  4 1017.3R
PETIT BOIS ISLND 1100   75      60/  5/  5 1017.9R
GRAND BAY        1045   64      10/  4     1018.0S
KATRINA CUT      1100   76      50/  3     1017.3R
CEDAR POINT      1100   72      10/  3     1016.9S
E DAUPHIN ISLAND 1100   75      60/  5/  7 1017.3R
MIDDLE BAY LIGHT 1100   73      80/  8     1017.3S
USCG MOBILE BAY  1100   63 83  320/  2/  4 1018.2R
STATE DOCKS      1100   63 85              1017.6R
MEAHER PARK      1100   63      10/  2     1018.0R
WEEKS BAY        1000   58                   N/A
FORT MORGAN      1100   74      80/  6/  7 1016.8R
12 S ORANGE BCH  1150   76 83   40/  4/  8 1017.9R   1
PENSACOLA BAY    1100   65 81  360/  4/  5 1017.6R
64 S DAUPHIN ISL 1100   77 84   50/  4/  8 1016.8R
67 S FORT MORGAN 1130   75      60/  8     1016.9R

$$

SELECTED LOCATIONS ACROSS THE REGION

CITY           SKY/WX    TMP DP  RH WIND       PRES   REMARKS
NEW ORLEANS    PTCLDY    67  61  81 CALM      30.07R
GULFPORT       CLEAR     60  58  92 CALM      30.07R
PASCAGOULA AP  CLEAR     54  54 100 CALM      30.07R
PASCAGOULA*    NOT AVBL
HATTIESBURG    CLEAR     56  54  93 CALM      30.09R
LAUREL         CLEAR     54  52  94 CALM      30.09R
MERIDIAN       CLEAR     54  50  86 CALM      30.09R
JACKSON        PTCLDY    53  51  93 CALM      30.10R
MONTGOMERY     CLEAR     52  48  86 CALM      30.09R
TROY           CLEAR     49  48  97 CALM      30.09R
KINSTON*       NOT AVBL
GENEVA*        NOT AVBL
ASHFORD*       NOT AVBL
DOTHAN         CLEAR     53  52  96 CALM      30.12R
PANAMA CITY    NOT AVBL

$$





USA.gov is the U.S. government's official web portal to all federal, state and local government web resources and services.